Home   Weather   Jelgava   Past weeks
Flag for Latvia

Past Weather in Jelgava, Latvia — Yesterday and Last 2 Weeks

Now
50 °F

Light rain. Mostly cloudy.


Feels Like: 47 °F
Forecast: 54 / 42 °F
Wind: 8 mph from South

Location: Riga Airport

Current Time: Nov 13, 2019 at 9:34:08 pm

Latest Report: Nov 13, 2019 at 8:50 pm


Visibility: N/A

Pressure: 29.68 "Hg

Humidity: 94%

Dew Point: 48 °F

Location of JelgavaLocation

Past Weather in Jelgava — Graph

°F

Jelgava Temperature Yesterday

Maximum temperature yesterday: 46 °F (at 10:20 pm)
Minimum temperature yesterday: 30 °F (at 2:20 am)
Average temperature yesterday: 38 °F

High & Low Weather Summary for the Past Weeks

 TemperatureHumidityPressure
High52 °F (Nov 13, 1:50 pm)100% (Oct 29, 8:50 pm)30.33 "Hg (Oct 29, 8:50 pm)
Low25 °F (Oct 30, 7:20 am)65% (Oct 30, 12:50 pm)29.21 "Hg (Nov 5, 2:20 am)
Average42 °F94%29.74 "Hg
* Reported Oct 29 8:50 pm — Nov 13 8:20 pm, Jelgava. Weather by CustomWeather, © 2019

Note: Actual official high and low records may vary slightly from our data, if they occured in-between our weather recording intervals... More about our weather records

Advertising

Jelgava Weather History for the Previous 24 Hours

Scroll right to see more
 ConditionsComfort  
Time TempWeatherWind HumidityBarometerVisibility
8:20 pm
Wed, Nov 13
50 °FLight rain. Mostly cloudy.9 mph94%29.68 "HgN/A
7:50 pm50 °FLight rain. Overcast.12 mph94%29.68 "HgN/A
7:20 pm52 °FLight rain. Passing clouds.14 mph88%29.68 "HgN/A
6:50 pm50 °FLight rain. Passing clouds.12 mph94%29.65 "HgN/A
6:20 pm50 °FLight rain. Clear.9 mph94%29.65 "HgN/A
5:50 pm50 °FLight rain. Passing clouds.8 mph94%29.68 "HgN/A
5:20 pm52 °FLight rain. Passing clouds.7 mph88%29.68 "HgN/A
4:50 pm50 °FPassing clouds.9 mph94%29.68 "HgN/A
4:20 pm50 °FLight rain. Passing clouds.7 mph94%29.68 "HgN/A
3:50 pm50 °FOvercast.7 mph94%29.68 "HgN/A
3:20 pm50 °FLight rain. Overcast.7 mph94%29.71 "HgN/A
2:50 pm50 °FLight rain. Cloudy.8 mph94%29.71 "Hg6 mi
2:20 pm50 °FLight rain. Mostly cloudy.8 mph94%29.71 "HgN/A
1:50 pm52 °FLight rain. Mostly cloudy.8 mph88%29.71 "HgN/A
1:20 pm50 °FOvercast.9 mph94%29.71 "HgN/A
12:50 pm50 °FLow clouds.9 mph94%29.74 "HgN/A
12:20 pm50 °FLow clouds.10 mph94%29.74 "HgN/A
11:50 am50 °FDrizzle. Low clouds.10 mph94%29.74 "HgN/A
11:20 am50 °FLight rain. Low clouds.12 mph94%29.74 "Hg4 mi
10:50 am50 °FLight rain. Low clouds.13 mph94%29.74 "HgN/A
10:20 am50 °FLight rain. Low clouds.13 mph94%29.74 "HgN/A
9:50 am48 °FLight rain. Low clouds.14 mph94%29.74 "HgN/A
9:20 am48 °FLight rain. Low clouds.13 mph94%29.74 "HgN/A
8:50 am46 °FLight rain. Low clouds.13 mph100%29.74 "HgN/A
8:20 am46 °FLight rain. Low clouds.10 mph93%29.77 "HgN/A
7:50 am46 °FLight rain. Low clouds.10 mph93%29.74 "HgN/A
7:20 am46 °FLight rain. Low clouds.10 mph93%29.77 "HgN/A
6:50 am45 °FLight rain. Mostly cloudy.9 mph100%29.77 "HgN/A
6:20 am45 °FLight rain. Mostly cloudy.7 mph93%29.77 "HgN/A
5:50 am45 °FLight rain. Overcast.9 mph100%29.80 "HgN/A
5:20 am45 °FLight rain. Mostly cloudy.8 mph93%29.80 "HgN/A
4:50 am45 °FLight rain. Mostly cloudy.8 mph93%29.83 "HgN/A
4:20 am45 °FLight rain. Overcast.10 mph93%29.83 "HgN/A
3:50 am45 °FLight rain. Overcast.10 mph93%29.86 "HgN/A
3:20 am45 °FLight rain. Passing clouds.10 mph93%29.86 "HgN/A
2:50 am45 °FLight rain. Overcast.12 mph93%29.86 "HgN/A
2:20 am46 °FLight rain. Overcast.13 mph82%29.86 "HgN/A
1:50 am46 °FOvercast.13 mph82%29.86 "HgN/A
1:20 am46 °FOvercast.12 mph82%29.86 "HgN/A
12:50 am46 °FOvercast.14 mph82%29.89 "HgN/A
12:20 am46 °FOvercast.14 mph82%29.89 "HgN/A
11:50 pm
Tue, Nov 12
46 °FOvercast.13 mph82%29.89 "HgN/A
11:20 pm46 °FOvercast.15 mph82%29.89 "HgN/A
10:50 pm46 °FOvercast.14 mph82%29.92 "HgN/A
10:20 pm46 °FOvercast.14 mph82%29.92 "HgN/A
9:50 pm45 °FOvercast.14 mph87%29.92 "HgN/A
9:20 pm45 °FOvercast.15 mph87%29.92 "HgN/A
Weather by CustomWeather, © 2019

See weather overview